This demonstration page uses our WeatherBlox Daily Observations layout. Learn more.

39.29038, -76.61219

Hourly Observations for September 15, 2019

Temp ( °F °C ) Dew Point ( °F °C ) Humidity (%) Winds ( mph kmh ) Pressure ( in mb ) Visibility ( mi km ) Precip ( " mm )
12:54 am 00:54 undefined 76 24.4 68 20 77 77 undefined N/A 30.15 1021 N/A 0 0
1:54 am 01:54 undefined 75 23.9 68 20 79 79 undefined N/A 30.16 1021 N/A 0 0
2:54 am 02:54 undefined 75 23.9 68 20 79 79 undefined N/A 30.15 1021 N/A 0 0
3:54 am 03:54 undefined 75 23.9 68 20 79 79 undefined N/A 30.15 1021 N/A 0 0
4:54 am 04:54 undefined 75 23.9 68 20 79 79 undefined N/A 30.16 1021 N/A 0 0
5:54 am 05:54 undefined 74 23.3 68 20 82 82 undefined N/A 30.16 1021 N/A 0 0
6:54 am 06:54 undefined 73 22.8 68 20 84 84 undefined N/A 30.16 1021 N/A 0 0
7:54 am 07:54 undefined 73 22.8 67 19.4 81 81 undefined N/A 30.16 1022 N/A 0 0
8:54 am 08:54 undefined 75 23.9 66 18.9 74 74 undefined N/A 30.17 1022 N/A 0 0
9:54 am 09:54 undefined 76 24.4 63 17.2 64 64 undefined N/A 30.19 1022 N/A 0 0
10:54 am 10:54 undefined 78 25.6 62 16.7 58 58 undefined N/A 30.19 1023 N/A 0 0
11:54 am 11:54 undefined 81 27.2 60 15.6 49 49 undefined N/A 30.17 1022 N/A 0 0
12:54 pm 12:54 undefined 83 28.3 57 13.9 41 41 undefined N/A 30.15 1021 N/A 0 0
1:54 pm 13:54 undefined 85 29.4 53 11.7 33 33 undefined N/A 30.13 1020 N/A 0 0
2:54 pm 14:54 undefined 86 30 52 11.1 31 31 undefined N/A 30.11 1020 N/A 0 0
3:54 pm 15:54 undefined 86 30 52 11.1 31 31 undefined N/A 30.1 1019 N/A 0 0
4:54 pm 16:54 undefined 85 29.4 50 10 30 30 undefined N/A 30.1 1019 N/A 0 0
5:54 pm 17:54 undefined 83 28.3 52 11.1 34 34 undefined N/A 30.09 1019 N/A 0 0
6:54 pm 18:54 undefined 83 28.3 52 11.1 34 34 undefined N/A 30.09 1019 N/A 0 0
7:54 pm 19:54 undefined 81 27.2 54 12.2 39 39 undefined N/A 30.09 1019 N/A 0 0
8:54 pm 20:54 undefined 80 26.7 56 13.3 44 44 undefined N/A 30.09 1019 N/A 0 0
9:54 pm 21:54 undefined 78 25.6 55 12.8 45 45 undefined N/A 30.09 1019 N/A 0 0
10:54 pm 22:54 undefined 75 23.9 58 14.4 55 55 undefined N/A 30.1 1019 N/A 0 0
11:54 pm 23:54 undefined 75 23.9 57 13.9 54 54 undefined N/A 30.11 1020 N/A 0 0

Powered by AerisWeather